Location: Bushey
(51.6333°N, 0.3667°W)
Time: 14:00:01
(UTC+00:00)

Cosmos 2322 Rocket - Pass Details

Date: 03 March 2021
Orbit: 832 x 852 km, 71.0° (Epoch: 13 April)

Event Time Altitude Azimuth Distance (km) Brightness Sun altitude
Rises 19:07:21 0° 208° (SSW) 3,365 5.6 -13.5°
Reaches altitude 10° 19:09:46 10° 208° (SSW) 2,436 4.9 -13.8°
Maximum altitude 19:15:22 90° 118° (ESE) 841 2.2 -14.7°
Drops below altitude 10° 19:21:01 10° 31° (NNE) 2,459 4.4 -15.6°
Sets 19:23:28 0° 31° (NNE) 3,400 5.1 -15.9°
